星链-37043(STARLINK-37043)

导读

STARLINK-37043(NORAD编号68246)是美国SpaceX公司星链(Starlink)卫星互联网星座中的一颗低轨通信卫星。星链计划旨在构建全球覆盖的近地轨道卫星网络,为偏远及欠发达地区提供高速低延迟宽带接入服务。该卫星采用标准化星链平台设计,配备相控阵通信天线与氪离子推进系统,具备自主碰撞规避能力,运行在近地轨道,是SpaceX持续扩张星链星座、实现全球互联网覆盖目标的组成部分,承担太空通信组网功能,推动全球互联互通与数字普及。

Basic Information
目录编号:
68246
目录名称:
STARLINK-37043
国际标识:
2026-054Q
轨道中心:
EARTH
卫星名称:
星链-37043
卫星全名:
星链-37043(STARLINK-37043)
卫星状态:
在轨 (已飞行178 天)
发射日期:
2026-03-17 UTC
国别 :
美国 (US)
星等 :
--
This satellite is enrolled in the Space Conjunction Data Service (SCDS) and the current flight risk assessment level is: No High Risk
Orbit Information
数据来源 国际轨道数据
星历时间: 2026-09-11T17:32:10+0800
12小时前
查看轨道信息
半长轴: 6840.851km
偏心率: 0.0001608
轨道倾角: 53.159°
近地点辐角 85.128°
升交点赤经 144.400°
平近点角 274.990°
近地点: 461.613km
远地点: 463.815km
周期: 93.848分钟
每日圈数: 15.343964
Detailed Information
固有亮度:
5
最大亮度:
2.5
卫星平台:
Starlink V1.0
覆盖范围:
全球
运营商:
太空探索技术公司
运营商所在国:
美国
制造商(研发单位):
太空探索技术公司
制造商所在国:
美国
使用方式:
暂无
Satellite Introduction
Starlink 计划是 SpaceX 推出的全球卫星互联网项目,通过发射低轨道卫星,为全球尤其是偏远地区提供高速、低延迟的互联网服务。自 2019 年起,Starlink 已部署数千颗卫星,旨在缩小全球数字鸿沟,推动互联网普及。该项目还为军事、航空等行业提供通信支持,带来广泛经济效益。
2D Orbit Map
3D Orbit Map
Orbit Altitude Analysis Chart
Orbit Inclination Analysis Chart
Orbit Comprehensive Analysis Chart
View Comprehensive Chart
Conjunction Data List
Event ID Objects TCA Miss Dist (km) Collision Risk Probability Collision Risk Index (CRI) Action
CDM_260914-011205-371106-824621
2026-09-14T
01:12:10+0000
0.504 km
远距离
7.108212E-5 中风险 0.72
CDM_260913-000606-044506-824621
2026-09-13T
00:06:59+0000
0.709 km
远距离
5.161828E-5 中风险 0.69
CDM_260913-084206-044506-824621
2026-09-13T
08:42:50+0000
1.527 km
极远距离
3.971269E-6 低风险 0.47
CDM_260912-063206-177906-824621
2026-09-12T
06:32:27+0000
1.495 km
极远距离
3.717604E-6 低风险 0.46
CDM_260913-171306-261006-824621
EDISON-1 (62610)
2026-09-13T
17:13:18+0000
2.157 km
极远距离
2.344354E-6 低风险 0.42
CDM_260913-123105-829906-824621
AETHER-2 (58299)
2026-09-13T
12:31:53+0000
2.548 km
极远距离
1.67337E-6 低风险 0.39
CDM_260913-070906-044506-824621
2026-09-13T
07:09:03+0000
2.177 km
极远距离
1.525673E-6 低风险 0.39
CDM_260912-121505-270406-824621
2026-09-12T
12:15:38+0000
2.517 km
极远距离
1.478948E-6 低风险 0.38
CDM_260912-171706-207806-824621
2026-09-12T
17:17:22+0000
2.928 km
极远距离
1.324664E-6 低风险 0.37
CDM_260913-164405-178106-824621
2026-09-13T
16:44:09+0000
2.653 km
极远距离
1.032948E-6 低风险 0.35
Miss Distance Evolution Trend with All Objects
Collision Probability Evolution Trend with All Objects